This is the latest recevied weather packets stored in our database for station/object K1ZK-13. If no packets are shown the sender has not sent any weather packets the latest 10 day(s).
| Time | Temp. | Humidity | Pressure | Rain* | Wind** | Luminosity | Snow |
|---|---|---|---|---|---|---|---|
| 1777644286 | 7.78° C | 60% | 1012.8 hPa | 0 mm | - | 500 W/m² | - |
| 1777643983 | 8.33° C | 60% | 1012.7 hPa | 0 mm | - | 489 W/m² | - |
| 1777643680 | 8.33° C | 59% | 1012.8 hPa | 0 mm | - | 479 W/m² | - |
| 1777643378 | 8.89° C | 59% | 1012.7 hPa | 0 mm | - | 467 W/m² | - |
| 1777643074 | 8.33° C | 59% | 1012.9 hPa | 0 mm | - | 457 W/m² | - |
| 1777642771 | 8.89° C | 62% | 1012.9 hPa | 0 mm | - | 435 W/m² | - |
| 1777642468 | 8.89° C | 62% | 1013 hPa | 0 mm | - | 432 W/m² | - |
| 1777642164 | 8.89° C | 59% | 1012.9 hPa | 0 mm | - | 421 W/m² | - |
| 1777641861 | 8.33° C | 62% | 1012.9 hPa | 0 mm | - | 412 W/m² | - |
| 1777641561 | 7.78° C | 63% | 1012.9 hPa | 0 mm | - | 398 W/m² | - |
| 1777641261 | 7.78° C | 61% | 1012.8 hPa | 0 mm | - | 387 W/m² | - |
| 1777640958 | 7.22° C | 64% | 1012.8 hPa | 0 mm | - | 375 W/m² | - |
| 1777640655 | 7.78° C | 63% | 1012.7 hPa | 0 mm | - | 346 W/m² | - |
| 1777640351 | 7.22° C | 65% | 1012.9 hPa | 0 mm | - | 348 W/m² | - |
| 1777640048 | 6.67° C | 65% | 1012.9 hPa | 0 mm | - | 333 W/m² | - |
| 1777639744 | 6.67° C | 64% | 1012.7 hPa | 0 mm | - | 321 W/m² | - |
| 1777639443 | 6.67° C | 66% | 1012.7 hPa | 0 mm | - | 308 W/m² | - |
| 1777639137 | 6.67° C | 67% | 1012.7 hPa | 0 mm | - | 303 W/m² | - |
| 1777637317 | 5° C | 74% | 1012.8 hPa | 0 mm | - | 115 W/m² | - |
| 1777637013 | 5° C | 74% | 1012.9 hPa | 0 mm | - | 115 W/m² | - |
| 1777635493 | 5° C | 77% | 1012.9 hPa | 0 mm | - | 79 W/m² | - |
| 1777635190 | 5° C | 77% | 1012.9 hPa | 0 mm | - | 79 W/m² | - |
| 1777634887 | 5° C | 77% | 1012.9 hPa | 0 mm | - | 79 W/m² | - |
| 1777633373 | 4.44° C | 84% | 1012.6 hPa | 0 mm | - | 42 W/m² | - |
| 1777633069 | 4.44° C | 84% | 1012.6 hPa | 0 mm | - | 42 W/m² | - |
* Rain latest hour (hover to see other rain measurements)
** Current wind speed in m/s (hover to see current wind gust speed)